Location: Sevilla
(37.3933°N, 5.9839°W)
Time: 21:56:17
(UTC+02:00)

S-56A Canister/Altair - Visible Passes

Search period start: 23 June 2024 00:00
Search period end: 03 July 2024 00:00
Orbit: 637 x 2489 km, 38.9° (Epoch: 22 June)

Date Brightness Start Highest point End Pass type
(mag) Time Alt. Az. Time Alt. Az. Time Alt. Az.
23 Jun 9.6 01:22:51 10° W 01:33:25 84° N 01:48:07 10° E visible
23 Jun 9.7 03:27:37 10° WNW 03:40:15 79° SSW 03:55:27 10° ESE visible
23 Jun 10.2 05:33:26 10° WNW 05:46:19 43° SW 05:59:41 10° SSE visible
23 Jun 9.0 22:45:35 10° WSW 22:53:24 73° SSE 23:05:24 10° ENE visible
24 Jun 9.5 00:49:12 10° W 00:59:05 83° N 01:13:18 10° E visible
24 Jun 9.6 02:53:44 10° WNW 03:05:45 82° SSW 03:20:56 10° ESE visible
24 Jun 10.0 04:59:09 10° WNW 05:11:57 48° SW 05:25:49 10° SSE visible
24 Jun 8.9 22:12:18 10° SW 22:19:32 66° SSE 22:30:41 10° ENE visible
25 Jun 9.3 00:15:38 10° W 00:24:49 84° N 00:38:28 10° E visible
25 Jun 9.6 02:19:56 10° WNW 02:31:17 86° SSW 02:46:19 10° ESE visible
25 Jun 9.9 04:25:01 10° WNW 04:37:33 52° SW 04:51:48 10° SE visible
25 Jun 10.7 06:33:20 10° W 06:42:33 20° SW 06:51:53 10° S visible
25 Jun 9.2 23:42:07 10° W 23:50:39 85° N 00:03:38 10° E visible
26 Jun 9.5 01:46:13 10° WNW 01:56:53 89° S 02:11:36 10° ESE visible
26 Jun 9.8 03:50:59 10° WNW 04:03:08 56° SSW 04:17:39 10° SE visible
26 Jun 10.6 05:58:21 10° W 06:08:23 23° SW 06:18:49 10° S visible
26 Jun 9.0 23:08:40 10° W 23:16:35 87° N 23:28:49 10° E visible
27 Jun 9.4 01:12:35 10° W 01:22:33 89° N 01:36:51 10° ESE visible
27 Jun 9.7 03:17:04 10° WNW 03:28:45 60° SSW 03:43:22 10° SE visible
27 Jun 10.5 05:23:39 10° W 05:34:10 27° SW 05:45:30 10° S visible
27 Jun 8.9 22:35:16 10° WSW 22:42:37 90° NNW 22:54:04 10° E visible
28 Jun 9.3 00:38:59 10° W 00:48:18 86° N 01:02:02 10° E visible
28 Jun 9.6 02:43:13 10° WNW 02:54:23 65° SSW 03:08:58 10° SE visible
28 Jun 10.3 04:49:11 10° W 04:59:56 30° SW 05:11:57 10° SSE visible
28 Jun 8.7 22:01:55 10° WSW 22:08:44 86° SSE 22:19:22 10° ENE visible
29 Jun 9.2 00:05:28 10° W 00:14:07 84° N 00:27:12 10° E visible
29 Jun 9.5 02:09:30 10° WNW 02:20:03 69° SSW 02:34:28 10° SE visible
29 Jun 10.2 04:14:56 10° W 04:25:40 34° SW 04:38:12 10° SSE visible
29 Jun 9.1 23:32:00 10° W 23:40:02 83° N 23:52:23 10° E visible
30 Jun 9.3 01:35:51 10° WNW 01:45:47 73° SSW 01:54:10 28° SE visible
30 Jun 10.1 03:40:49 10° W 04:05:46 - SSE 03:51:13 37° SW visible
30 Jun11.306:03:28SSW06:03:28SSW05:48:16Wvisible
30 Jun 9.0 22:58:35 10° W 23:06:01 82° N 23:17:35 10° E visible
01 Jul 9.2 01:02:16 10° WNW 01:11:34 77° SSW 01:19:33 29° ESE visible
01 Jul 9.9 03:06:51 10° W 03:16:43 40° SW 03:16:43 40° SW visible
01 Jul11.305:34:47S05:34:47S05:13:53Wvisible
01 Jul 8.8 22:25:12 10° W 22:32:06 81° N 22:42:51 10° E visible
02 Jul 9.1 00:28:45 10° WNW 00:37:26 81° SSW 00:45:50 25° ESE visible
02 Jul 9.8 02:33:00 10° W 02:42:55 44° SSW 02:43:03 44° SSW visible
